Estación de Renaico
Ultimos registro cada 15 minutos 25
| N° | Estación | Fecha / Hora | Temperatura | Humedad | Lluvia | Velocidad | Dirección | Radiación | Presion |
| 25 | Renaico | 06-05-2026 06:00 | 13,1 | 98,6 | 1 | 0 | 6 | 0,6 | 1000,5 |
| 24 | Renaico | 06-05-2026 05:45 | 13,2 | 98,6 | 0,6 | 0 | 4 | 0,6 | 1000,7 |
| 23 | Renaico | 06-05-2026 05:30 | 13,1 | 98,6 | 2,8 | 0 | 3 | 0,6 | 1000,7 |
| 22 | Renaico | 06-05-2026 05:15 | 13,2 | 98,6 | 2,8 | 0 | 29 | 0,6 | 1000,6 |
| 21 | Renaico | 06-05-2026 05:00 | 13,1 | 98,6 | 0,8 | 0 | 45 | 0,6 | 1000,8 |
| 20 | Renaico | 06-05-2026 04:45 | 13,1 | 98,6 | 2 | 0 | 20 | 0,6 | 1000,6 |
| 19 | Renaico | 06-05-2026 04:30 | 13,1 | 98,6 | 1,4 | 0 | 14 | 0,6 | 1000,4 |
| 18 | Renaico | 06-05-2026 04:15 | 13,1 | 98,6 | 0,6 | 0 | 25 | 0,6 | 1000,7 |
| 17 | Renaico | 06-05-2026 04:00 | 13 | 98,6 | 0,6 | 0 | 10 | 0,6 | 1000,7 |
| 16 | Renaico | 06-05-2026 03:45 | 13 | 98,6 | 0,2 | 0 | 34 | 0,6 | 1000,9 |
| 15 | Renaico | 06-05-2026 03:30 | 13 | 98,6 | 0,2 | 0 | 28 | 0,6 | 1001,2 |
| 14 | Renaico | 06-05-2026 03:15 | 13 | 98,5 | 0,2 | 0 | 42 | 0,6 | 1001,3 |
| 13 | Renaico | 06-05-2026 03:00 | 13 | 98,5 | 0,2 | 0 | 15 | 0,6 | 1001,4 |
| 12 | Renaico | 06-05-2026 02:45 | 13 | 98,5 | 0,2 | 0 | 21 | 0,6 | 1001,6 |
| 11 | Renaico | 06-05-2026 02:30 | 13 | 98,5 | 0,2 | 0 | 22 | 0,6 | 1001,5 |
| 10 | Renaico | 06-05-2026 02:15 | 12,9 | 98,4 | 0,6 | 0 | 15 | 0,6 | 1001,7 |
| 9 | Renaico | 06-05-2026 02:00 | 12,8 | 98,4 | 0,8 | 0 | 10 | 0,6 | 1001,7 |
| 8 | Renaico | 06-05-2026 01:45 | 12,8 | 98,3 | 1,4 | 0 | 10 | 0,6 | 1001,7 |
| 7 | Renaico | 06-05-2026 01:30 | 12,8 | 98,3 | 0,8 | 0 | 10 | 0,6 | 1001,8 |
| 6 | Renaico | 06-05-2026 01:15 | 12,8 | 98,3 | 0 | 0 | 10 | 0,6 | 1002,3 |
| 5 | Renaico | 06-05-2026 01:00 | 12,8 | 98,3 | 0 | 0 | 10 | 0,6 | 1002,4 |
| 4 | Renaico | 06-05-2026 00:45 | 12,7 | 98,3 | 0,2 | 0 | 7 | 0,6 | 1001,6 |
| 3 | Renaico | 06-05-2026 00:30 | 12,8 | 98,3 | 2,6 | 0 | 4 | 0,6 | 1002,5 |
| 2 | Renaico | 06-05-2026 00:15 | 12,9 | 98,2 | 0,4 | 0 | 350 | 0,6 | 1002,8 |
| 1 | Renaico | 06-05-2026 00:00 | 12,8 | 98,2 | 1 | 0 | 7 | 0,6 | 1001,9 |